Hancock, MI

2:25 PM EDT on September 30, 2016 (GMT -0400)
Houghton County Memorial

Weather History for KCMX - February, 2013

Change the Weather History Date:

Monday, February 25, 2013

  Actual Average Record
Temperature  
Mean Temperature 22 °F -  
Max Temperature 33 °F 25 °F 45 °F (1958)
Min Temperature 10 °F 10 °F -15 °F (2003)
Degree Days  
Heating Degree Days 44    
Moisture  
Dew Point 19 °F    
Average Humidity 85    
Maximum Humidity 100    
Minimum Humidity 64    
Precipitation  
Precipitation 0.27 in - - ()
Sea Level Pressure  
Sea Level Pressure 30.08 in    
Wind  
Wind Speed 2 mph (WNW)    
Max Wind Speed 12 mph    
Max Gust Speed -    
Visibility 7 miles    
Events Fog    
Averages and records for this station are not official NWS values.
T = Trace of Precipitation, MM = Missing Value Source: NWS Daily Summary

Daily Weather History Graph

Daily Weather History Graph

Search for Another Location

Airport or City:

Trip Planner

Search our weather history database for the weather conditions in past years. The results will help you decide how hot, cold, wet, or windy it might be!

Date:

Astronomy

Feb. 25, 2013 Rise Set
Actual Time 7:40 AM EST 6:33 PM EST
Civil Twilight 7:10 AM EST 7:04 PM EST
Nautical Twilight 6:34 AM EST 7:39 PM EST
Astronomical Twilight 5:59 AM EST 8:15 PM EST
Moon 6:51 PM EST (2/25) 7:08 AM EST (2/25)
Length of Visible Light 11h 54m
Length of Day
10h 52m
Full, 100% of the Moon is Illuminated
Feb 25
Full
Feb 25
Full
Mar 4
Last Quarter
Mar 11
New
Mar 19
First Quarter

Hourly Weather History & Observations

Time (EST) Temp. Windchill Dew Point Humidity Pressure Visibility Wind Dir Wind Speed Gust Speed Precip Events Conditions
12:53 AM 25.0 °F 20.7 °F 21.0 °F 85% 30.10 in 10.0 mi South 3.5 mph - N/A   Overcast
1:53 AM 26.1 °F - 21.9 °F 84% 30.11 in 10.0 mi Calm Calm - N/A   Overcast
2:50 AM 21.2 °F - 19.4 °F 93% 30.06 in 10.0 mi Calm Calm - N/A   Partly Cloudy
2:53 AM 21.9 °F - 19.0 °F 89% 30.12 in 10.0 mi Calm Calm - N/A   Partly Cloudy
3:53 AM 25.0 °F - 21.0 °F 85% 30.11 in 10.0 mi Calm Calm - N/A   Overcast
4:53 AM 23.0 °F - 19.4 °F 86% 30.06 in 10.0 mi Calm Calm - N/A   Overcast
5:53 AM 21.9 °F - 19.9 °F 92% 30.10 in 10.0 mi Calm Calm - N/A   Overcast
6:33 AM 15.8 °F - 15.8 °F 100% 30.04 in 1.5 mi Calm Calm - N/A   Clear
6:42 AM 15.8 °F - 14.0 °F 93% 30.04 in 0.5 mi Calm Calm - N/A Fog Light Freezing Fog
6:53 AM 16.0 °F - 15.1 °F 96% 30.11 in 1.0 mi Calm Calm - N/A   Clear
7:01 AM 15.8 °F - 15.8 °F 100% 30.04 in 4.0 mi Calm Calm - N/A   Clear
7:26 AM 15.8 °F - 15.8 °F 100% 30.05 in 1.8 mi Calm Calm - N/A   Clear
7:35 AM 12.2 °F - 10.4 °F 92% 30.05 in 0.5 mi Calm Calm - N/A Fog Light Freezing Fog
7:43 AM 10.4 °F - 10.4 °F 100% 30.05 in 2.0 mi Calm Calm - N/A   Clear
7:53 AM 17.1 °F - 16.0 °F 96% 30.12 in 4.0 mi Calm Calm - N/A   Clear
8:05 AM 19.4 °F - 17.6 °F 93% 30.06 in 0.8 mi Calm Calm - N/A   Mist
8:17 AM 12.2 °F - 10.4 °F 92% 30.06 in 2.0 mi Calm Calm - 0.06 in   Partly Cloudy
8:24 AM 12.2 °F - 10.4 °F 92% 30.06 in 7.0 mi Calm Calm - 0.13 in   Partly Cloudy
8:33 AM 17.6 °F - 15.8 °F 93% 30.05 in 2.0 mi Calm Calm - 0.20 in   Partly Cloudy
8:42 AM 15.8 °F - 15.8 °F 100% 30.05 in 7.0 mi Calm Calm - 0.25 in   Clear
8:53 AM 19.9 °F - 19.0 °F 96% 30.11 in 2.5 mi Calm Calm - 0.27 in   Clear
9:05 AM 21.2 °F - 19.4 °F 93% 30.06 in 6.0 mi Calm Calm - N/A   Clear
9:53 AM 24.1 °F 15.2 °F 19.9 °F 84% 30.12 in 10.0 mi West 8.1 mph - N/A   Clear
10:53 AM 30.0 °F 23.2 °F 23.0 °F 75% 30.12 in 10.0 mi West 6.9 mph - N/A   Clear
11:53 AM 33.1 °F 26.1 °F 23.0 °F 66% 30.11 in 10.0 mi West 8.1 mph - N/A   Clear
12:53 PM 33.1 °F 24.4 °F 23.0 °F 66% 30.10 in 10.0 mi West 11.5 mph - N/A   Overcast
1:53 PM 33.1 °F 24.9 °F 23.0 °F 66% 30.09 in 10.0 mi WNW 10.4 mph - N/A   Overcast
2:53 PM 33.1 °F 25.5 °F 23.0 °F 66% 30.09 in 10.0 mi WNW 9.2 mph - N/A   Overcast
3:53 PM 33.1 °F 30.0 °F 21.9 °F 64% 30.09 in 10.0 mi WNW 3.5 mph - N/A   Overcast
4:53 PM 33.1 °F 30.0 °F 21.9 °F 64% 30.09 in 10.0 mi NW 3.5 mph - N/A   Overcast
5:53 PM 33.1 °F - 21.9 °F 64% 30.09 in 10.0 mi Calm Calm - N/A   Overcast
6:53 PM 28.9 °F 25.2 °F 23.0 °F 78% 30.10 in 10.0 mi NNW 3.5 mph - N/A   Overcast
7:53 PM 26.1 °F - 21.9 °F 84% 30.11 in 10.0 mi Calm Calm - N/A   Partly Cloudy
8:53 PM 26.1 °F 21.9 °F 21.9 °F 84% 30.11 in 10.0 mi ENE 3.5 mph - N/A   Overcast
9:53 PM 28.9 °F - 23.0 °F 78% 30.11 in 10.0 mi Calm Calm - N/A   Overcast
10:53 PM 28.0 °F - 23.0 °F 81% 30.10 in 10.0 mi Calm Calm - N/A   Overcast
11:53 PM 27.0 °F - 23.0 °F 85% 30.09 in 10.0 mi Calm Calm - N/A   Overcast